Location: Bayshore Village Mobile Home Park
(26.6945°N, 81.8642°W)
Time: 00:12:24
(UTC+00:00)

Hubble Space Telescope - Pass Details

Date: 29 October 2021
Orbit: 534 x 538 km, 28.5° (Epoch: 07 December)

Event Time Altitude Azimuth Distance (km) Brightness Sun altitude
Rises 23:11:00 0° 242° (WSW) 2,659 6.2 -6.1°
Reaches altitude 10° 23:13:18 10° 237° (WSW) 1,770 4.8 -6.6°
Maximum altitude 23:17:17 51° 162° (SSE) 670 1.2 -7.5°
Enters shadow 23:21:11 10° 86° (E) 1,744 2.7 -8.3°
